When you browse on this site, cookies collect data to enhance your experience and personalize the content and advertising you see.
Visit our Privacy Policy to learn more. By continuing to use the site, you agree to this use of cookies and data.
  • In Österreich
  • Länderverzeichnis
  • Für 7 Tage
  • Wassertemperatur
  • Satellitenkarten
  • Wetterkarte
  • News
  • Widgets
  • user-avatar
    Anmelden

    Stündliche Wetter Shkoder

    Heute, 20 November, Dienstag

    Zeit Temperatur Niederschläge Wind Luftdruck Luftfeuchtigkeit
    00:00 +10°C° 1.1 mm 3 m/S 736 mmHg 82%
    01:00 +10°C° 1.1 mm 4 m/S 736 mmHg 84%
    02:00 +10°C° 2.8 mm 4 m/S 736 mmHg 86%
    03:00 +10°C° 2.8 mm 4 m/S 735 mmHg 88%
    04:00 +10°C° 2.8 mm 4 m/S 735 mmHg 90%
    05:00 +11°C° 5.1 mm 4 m/S 735 mmHg 90%
    06:00 +11°C° 5.1 mm 4 m/S 735 mmHg 91%
    07:00 +10°C° 5.1 mm 5 m/S 735 mmHg 92%
    08:00 +11°C° 5.5 mm 4 m/S 735 mmHg 92%
    09:00 +11°C° 5.5 mm 4 m/S 735 mmHg 92%
    10:00 +11°C° 5.5 mm 4 m/S 735 mmHg 92%
    11:00 +12°C° 3.6 mm 4 m/S 735 mmHg 92%
    12:00 +12°C° 3.6 mm 4 m/S 735 mmHg 91%
    13:00 +12°C° 3.6 mm 4 m/S 735 mmHg 91%
    14:00 +12°C° 2.2 mm 4 m/S 735 mmHg 91%
    15:00 +12°C° 2.2 mm 4 m/S 735 mmHg 91%
    16:00 +12°C° 2.2 mm 4 m/S 735 mmHg 91%
    17:00 +12°C° 1.1 mm 4 m/S 735 mmHg 91%
    18:00 +12°C° 1.1 mm 4 m/S 735 mmHg 91%
    19:00 +12°C° 1.1 mm 3 m/S 735 mmHg 91%
    20:00 +12°C° 1.5 mm 3 m/S 735 mmHg 91%
    21:00 +13°C° 1.5 mm 3 m/S 735 mmHg 92%
    22:00 +13°C° 1.5 mm 3 m/S 735 mmHg 92%
    23:00 +13°C° 1.9 mm 3 m/S 735 mmHg 93%

    Morgen, 21 November, Mittwoch

    Zeit Temperatur Niederschläge Wind Luftdruck Luftfeuchtigkeit
    00:00 +13°C° 1.9 mm 3 m/S 735 mmHg 94%
    01:00 +13°C° 1.9 mm 3 m/S 735 mmHg 94%
    02:00 +12°C° 2.2 mm 3 m/S 735 mmHg 95%
    03:00 +12°C° 2.2 mm 3 m/S 735 mmHg 95%
    04:00 +13°C° 2.2 mm 2 m/S 734 mmHg 95%
    05:00 +13°C° 1.6 mm 2 m/S 735 mmHg 94%
    06:00 +13°C° 1.6 mm 2 m/S 735 mmHg 94%
    07:00 +13°C° 1.6 mm 2 m/S 735 mmHg 94%
    08:00 +14°C° 0.6 mm 2 m/S 735 mmHg 91%
    09:00 +14°C° 0.6 mm 2 m/S 736 mmHg 88%
    10:00 +15°C° 0.6 mm 1 m/S 736 mmHg 86%
    11:00 +15°C° 0.4 mm 1 m/S 736 mmHg 84%
    12:00 +16°C° 0.4 mm 1 m/S 736 mmHg 82%
    13:00 +16°C° 0.4 mm 1 m/S 736 mmHg 80%
    14:00 +15°C° 0.3 mm 1 m/S 737 mmHg 82%
    15:00 +15°C° 0.3 mm 1 m/S 737 mmHg 85%
    16:00 +14°C° 0.3 mm 1 m/S 737 mmHg 87%
    17:00 +14°C° 0.2 mm 1 m/S 738 mmHg 88%
    18:00 +13°C° 0.2 mm 1 m/S 738 mmHg 90%
    19:00 +13°C° 0.2 mm 1 m/S 739 mmHg 91%
    20:00 +12°C° 0.1 mm 2 m/S 739 mmHg 91%
    21:00 +12°C° 0.1 mm 2 m/S 739 mmHg 91%
    22:00 +12°C° 0.1 mm 2 m/S 739 mmHg 91%
    23:00 +12°C° 0 mm 2 m/S 740 mmHg 91%

    übermorgen, 22 November, Donnerstag

    Zeit Temperatur Niederschläge Wind Luftdruck Luftfeuchtigkeit
    00:00 +12°C° 0 mm 2 m/S 740 mmHg 90%
    01:00 +10°C° 0 mm 2 m/S 740 mmHg 90%
    02:00 +10°C° 0 mm 2 m/S 740 mmHg 89%
    03:00 +10°C° 0 mm 2 m/S 740 mmHg 89%
    04:00 +10°C° 0 mm 2 m/S 740 mmHg 89%
    05:00 +10°C° 0 mm 2 m/S 740 mmHg 88%
    06:00 +10°C° 0 mm 2 m/S 741 mmHg 88%
    07:00 +9°C° 0 mm 2 m/S 741 mmHg 87%
    08:00 +12°C° 0 mm 2 m/S 741 mmHg 82%
    09:00 +13°C° 0 mm 1 m/S 741 mmHg 78%
    10:00 +14°C° 0 mm 1 m/S 741 mmHg 73%
    11:00 +15°C° 0.1 mm 1 m/S 741 mmHg 71%
    12:00 +15°C° 0.1 mm 1 m/S 741 mmHg 70%
    13:00 +16°C° 0.1 mm 1 m/S 741 mmHg 69%
    14:00 +15°C° 0 mm 1 m/S 741 mmHg 72%
    15:00 +14°C° 0 mm 1 m/S 741 mmHg 76%
    16:00 +12°C° 0 mm 0 m/S 741 mmHg 80%
    17:00 +13°C° 0 mm 1 m/S 742 mmHg 82%
    18:00 +12°C° 0 mm 1 m/S 742 mmHg 83%
    19:00 +12°C° 0 mm 1 m/S 742 mmHg 85%
    20:00 +11°C° 0 mm 1 m/S 743 mmHg 84%
    21:00 +11°C° 0 mm 1 m/S 743 mmHg 84%
    22:00 +11°C° 0 mm 1 m/S 743 mmHg 84%
    23:00 +11°C° 0 mm 1 m/S 744 mmHg 84%

    23 November, Freitag

    Zeit Temperatur Niederschläge Wind Luftdruck Luftfeuchtigkeit
    00:00 +10°C° 0 mm 1 m/S 744 mmHg 84%
    01:00 +10°C° 0 mm 1 m/S 744 mmHg 83%
    02:00 +9°C° 0 mm 2 m/S 744 mmHg 83%
    03:00 +9°C° 0 mm 2 m/S 744 mmHg 83%
    04:00 +9°C° 0 mm 2 m/S 744 mmHg 83%
    05:00 +8°C° 0 mm 2 m/S 745 mmHg 83%
    06:00 +8°C° 0 mm 2 m/S 745 mmHg 83%
    07:00 +8°C° 0 mm 2 m/S 745 mmHg 83%
    08:00 +10°C° 0 mm 2 m/S 746 mmHg 77%
    09:00 +12°C° 0 mm 1 m/S 746 mmHg 71%
    10:00 +14°C° 0 mm 1 m/S 746 mmHg 65%
    11:00 +14°C° 0 mm 1 m/S 746 mmHg 63%
    12:00 +15°C° 0 mm 1 m/S 746 mmHg 61%
    13:00 +16°C° 0 mm 1 m/S 745 mmHg 59%
    14:00 +15°C° 0 mm 1 m/S 745 mmHg 64%
    15:00 +14°C° 0 mm 1 m/S 746 mmHg 68%
    16:00 +13°C° 0 mm 1 m/S 746 mmHg 73%
    17:00 +12°C° 0 mm 1 m/S 746 mmHg 75%
    18:00 +11°C° 0 mm 1 m/S 746 mmHg 77%
    19:00 +10°C° 0 mm 2 m/S 746 mmHg 80%
    20:00 +9°C° 0 mm 2 m/S 746 mmHg 80%
    21:00 +9°C° 0 mm 2 m/S 747 mmHg 80%
    22:00 +9°C° 0 mm 2 m/S 747 mmHg 81%
    23:00 +9°C° 0 mm 2 m/S 747 mmHg 80%

    24 November, Samstag

    Zeit Temperatur Niederschläge Wind Luftdruck Luftfeuchtigkeit
    00:00 +8°C° 0 mm 2 m/S 747 mmHg 80%
    01:00 +8°C° 0 mm 2 m/S 746 mmHg 80%
    02:00 +8°C° 0 mm 2 m/S 746 mmHg 80%
    03:00 +8°C° 0 mm 2 m/S 746 mmHg 80%
    04:00 +8°C° 0 mm 2 m/S 746 mmHg 79%
    05:00 +8°C° 0 mm 2 m/S 746 mmHg 79%
    06:00 +8°C° 0 mm 2 m/S 746 mmHg 78%
    07:00 +8°C° 0 mm 2 m/S 746 mmHg 78%
    08:00 +9°C° 0 mm 2 m/S 746 mmHg 71%
    09:00 +12°C° 0 mm 1 m/S 746 mmHg 64%
    10:00 +14°C° 0 mm 1 m/S 746 mmHg 57%
    11:00 +15°C° 0 mm 1 m/S 745 mmHg 55%
    12:00 +15°C° 0 mm 1 m/S 745 mmHg 54%
    13:00 +16°C° 0 mm 2 m/S 744 mmHg 52%
    14:00 +15°C° 0 mm 1 m/S 744 mmHg 58%
    15:00 +14°C° 0 mm 1 m/S 743 mmHg 63%
    16:00 +12°C° 0 mm 1 m/S 743 mmHg 68%
    17:00 +12°C° 0 mm 1 m/S 743 mmHg 69%
    18:00 +12°C° 0 mm 1 m/S 743 mmHg 70%
    19:00 +10°C° 0 mm 2 m/S 743 mmHg 71%
    20:00 +10°C° 0 mm 2 m/S 743 mmHg 71%
    21:00 +10°C° 0 mm 2 m/S 743 mmHg 71%
    22:00 +9°C° 0 mm 2 m/S 743 mmHg 71%
    23:00 +9°C° 0 mm 2 m/S 743 mmHg 70%

    25 November, Sonntag

    Zeit Temperatur Niederschläge Wind Luftdruck Luftfeuchtigkeit
    00:00 +9°C° 0 mm 2 m/S 743 mmHg 69%
    01:00 +9°C° 0 mm 2 m/S 743 mmHg 68%
    02:00 +9°C° 0 mm 2 m/S 743 mmHg 71%
    03:00 +9°C° 0 mm 2 m/S 742 mmHg 73%
    04:00 +9°C° 0 mm 2 m/S 742 mmHg 75%
    05:00 +10°C° 0 mm 2 m/S 742 mmHg 78%
    06:00 +10°C° 0 mm 2 m/S 742 mmHg 80%
    07:00 +10°C° 0 mm 2 m/S 741 mmHg 83%
    08:00 +12°C° 0.2 mm 2 m/S 741 mmHg 82%
    09:00 +12°C° 0.2 mm 3 m/S 741 mmHg 82%
    10:00 +13°C° 0.2 mm 3 m/S 741 mmHg 81%
    11:00 +13°C° 1.2 mm 3 m/S 740 mmHg 83%
    12:00 +13°C° 1.2 mm 3 m/S 740 mmHg 86%
    13:00 +13°C° 1.2 mm 3 m/S 739 mmHg 88%
    14:00 +12°C° 2.5 mm 3 m/S 739 mmHg 90%
    15:00 +13°C° 2.5 mm 2 m/S 738 mmHg 92%
    16:00 +13°C° 2.5 mm 2 m/S 738 mmHg 93%
    17:00 +12°C° 2.3 mm 3 m/S 738 mmHg 94%
    18:00 +13°C° 2.3 mm 3 m/S 738 mmHg 95%
    19:00 +13°C° 2.3 mm 3 m/S 737 mmHg 96%
    20:00 +13°C° 3.4 mm 3 m/S 737 mmHg 96%
    21:00 +13°C° 3.4 mm 4 m/S 737 mmHg 96%
    22:00 +13°C° 3.4 mm 4 m/S 737 mmHg 96%
    23:00 +13°C° 3.4 mm 4 m/S 736 mmHg 95%
    Mehr zeigen